Location: Bytom
(50.3475°N, 18.9244°E)
Time: 00:08:26
(UTC+01:00)

Tiangong 2 - Visible Passes

Search period start: 25 March 2019 00:00
Search period end: 04 April 2019 01:00
Orbit: 380 x 389 km, 42.8° (Epoch: 24 March)

Date Brightness Start Highest point End Pass type
(mag) Time Alt. Az. Time Alt. Az. Time Alt. Az.
31 Mar 3.7 20:51:20 10° S 20:51:28 10° S 20:51:28 10° S visible
01 Apr 3.9 21:27:15 10° SW 21:27:20 10° SW 21:27:20 10° SW visible
02 Apr 2.9 20:28:10 10° SSW 20:30:14 16° SSE 20:30:50 16° SSE visible
03 Apr 2.9 21:04:33 10° SW 21:06:26 20° SSW 21:06:26 20° SSW visible
